• In Hungary
  • List of Countries
  • For 7 days
  • Water Temperature
  • Satellite Maps
  • Weather Map
  • News
  • Weather Widgets
  • user-avatar
    Login

    Hourly Weather Kochle

    Today, 16 January, Tuesday

    Time Temperature Precipitation Wind Pressure Humidity
    00:00 -6°C° 0 mm 6 mps 736 mmHg 55%
    01:00 -8°C° 0 mm 6 mps 735 mmHg 56%
    02:00 -8°C° 0 mm 6 mps 734 mmHg 57%
    03:00 -8°C° 0 mm 7 mps 733 mmHg 58%
    04:00 -8°C° 0 mm 7 mps 732 mmHg 58%
    05:00 -7°C° 0 mm 7 mps 731 mmHg 59%
    06:00 -7°C° 0 mm 7 mps 730 mmHg 60%
    07:00 -7°C° 0 mm 7 mps 729 mmHg 62%
    08:00 -7°C° 0.1 mm 7 mps 728 mmHg 65%
    09:00 -6°C° 0.1 mm 8 mps 728 mmHg 68%
    10:00 -6°C° 0.1 mm 8 mps 727 mmHg 70%
    11:00 -5°C° 0.1 mm 8 mps 726 mmHg 68%
    12:00 -3°C° 0.1 mm 7 mps 726 mmHg 65%
    13:00 -2°C° 0.1 mm 7 mps 725 mmHg 63%
    14:00 -2°C° 0.1 mm 7 mps 724 mmHg 66%
    15:00 -2°C° 0.1 mm 7 mps 724 mmHg 69%
    16:00 -3°C° 0.1 mm 6 mps 723 mmHg 72%
    17:00 -3°C° 0.3 mm 6 mps 722 mmHg 76%
    18:00 -3°C° 0.3 mm 6 mps 722 mmHg 81%
    19:00 -3°C° 0.3 mm 6 mps 721 mmHg 85%
    20:00 -3°C° 0.7 mm 6 mps 721 mmHg 84%
    21:00 -2°C° 0.7 mm 6 mps 720 mmHg 83%
    22:00 -1°C° 0.7 mm 6 mps 720 mmHg 82%
    23:00 -2°C° 0.2 mm 6 mps 720 mmHg 82%

    Tomorrow, 17 January, Wednesday

    Time Temperature Precipitation Wind Pressure Humidity
    00:00 -2°C° 0.2 mm 7 mps 720 mmHg 81%
    01:00 -2°C° 0.2 mm 7 mps 720 mmHg 81%
    02:00 -3°C° 0 mm 6 mps 720 mmHg 82%
    03:00 -2°C° 0 mm 5 mps 720 mmHg 83%
    04:00 -4°C° 0 mm 5 mps 720 mmHg 84%
    05:00 -3°C° 0 mm 4 mps 720 mmHg 85%
    06:00 -3°C° 0 mm 4 mps 720 mmHg 86%
    07:00 -2°C° 0 mm 3 mps 720 mmHg 87%
    08:00 -1°C° 0 mm 3 mps 720 mmHg 86%
    09:00 -1°C° 0 mm 3 mps 720 mmHg 85%
    10:00 -1°C° 0 mm 3 mps 720 mmHg 84%
    11:00 -1°C° 0.1 mm 4 mps 720 mmHg 84%
    12:00 -1°C° 0.1 mm 4 mps 720 mmHg 84%
    13:00 -1°C° 0.1 mm 4 mps 721 mmHg 83%
    14:00 -1°C° 0.2 mm 5 mps 721 mmHg 82%
    15:00 -1°C° 0.2 mm 5 mps 722 mmHg 81%
    16:00 -2°C° 0.2 mm 5 mps 722 mmHg 80%
    17:00 -2°C° 0.1 mm 5 mps 723 mmHg 81%
    18:00 -2°C° 0.1 mm 5 mps 723 mmHg 83%
    19:00 -4°C° 0.1 mm 6 mps 724 mmHg 84%
    20:00 -4°C° 0.2 mm 6 mps 724 mmHg 83%
    21:00 -4°C° 0.2 mm 6 mps 725 mmHg 82%
    22:00 -4°C° 0.2 mm 6 mps 725 mmHg 82%
    23:00 -4°C° 0 mm 5 mps 726 mmHg 82%

    Day after tomorrow, 18 January, Thursday

    Time Temperature Precipitation Wind Pressure Humidity
    00:00 -4°C° 0 mm 5 mps 726 mmHg 83%
    01:00 -5°C° 0 mm 5 mps 726 mmHg 83%
    02:00 -4°C° 0.1 mm 5 mps 727 mmHg 84%
    03:00 -4°C° 0.1 mm 5 mps 727 mmHg 85%
    04:00 -4°C° 0.1 mm 5 mps 727 mmHg 86%
    05:00 -2°C° 0.3 mm 5 mps 727 mmHg 86%
    06:00 -2°C° 0.3 mm 5 mps 727 mmHg 87%
    07:00 -2°C° 0.3 mm 5 mps 728 mmHg 88%
    08:00 -2°C° 0.1 mm 5 mps 728 mmHg 86%
    09:00 -2°C° 0.1 mm 5 mps 728 mmHg 85%
    10:00 -2°C° 0.1 mm 5 mps 728 mmHg 84%
    11:00 -1°C° 0.1 mm 5 mps 727 mmHg 83%
    12:00 -1°C° 0.1 mm 5 mps 726 mmHg 82%
    13:00 -1°C° 0.1 mm 5 mps 725 mmHg 81%
    14:00 -2°C° 0.9 mm 6 mps 724 mmHg 84%
    15:00 -3°C° 0.9 mm 7 mps 723 mmHg 87%
    16:00 -4°C° 0.9 mm 8 mps 721 mmHg 89%
    17:00 -2°C° 1.3 mm 7 mps 720 mmHg 90%
    18:00 -1°C° 1.3 mm 7 mps 719 mmHg 91%
    19:00 0°C° 1.3 mm 7 mps 718 mmHg 91%
    20:00 0°C° 0.3 mm 7 mps 718 mmHg 86%
    21:00 -1°C° 0.3 mm 8 mps 717 mmHg 80%
    22:00 -1°C° 0.3 mm 9 mps 717 mmHg 75%
    23:00 -1°C° 0.2 mm 9 mps 718 mmHg 76%

    19 January, Friday

    Time Temperature Precipitation Wind Pressure Humidity
    00:00 -3°C° 0.2 mm 10 mps 718 mmHg 78%
    01:00 -3°C° 0.2 mm 10 mps 719 mmHg 80%
    02:00 -3°C° 0.1 mm 10 mps 720 mmHg 82%
    03:00 -4°C° 0.1 mm 9 mps 721 mmHg 84%
    04:00 -4°C° 0.1 mm 9 mps 722 mmHg 86%
    05:00 -4°C° 0.1 mm 8 mps 723 mmHg 87%
    06:00 -4°C° 0.1 mm 7 mps 725 mmHg 88%
    07:00 -4°C° 0.1 mm 6 mps 726 mmHg 89%
    08:00 -4°C° 0 mm 5 mps 727 mmHg 89%
    09:00 -3°C° 0 mm 4 mps 727 mmHg 88%
    10:00 -3°C° 0 mm 4 mps 728 mmHg 88%
    11:00 -2°C° 0 mm 3 mps 728 mmHg 88%
    12:00 -1°C° 0 mm 3 mps 729 mmHg 87%
    13:00 -1°C° 0 mm 2 mps 729 mmHg 87%
    14:00 -2°C° 0 mm 2 mps 729 mmHg 88%
    15:00 -2°C° 0 mm 2 mps 729 mmHg 89%
    16:00 0°C° 0 mm 1 mps 729 mmHg 90%
    17:00 -1°C° 0 mm 1 mps 730 mmHg 91%
    18:00 -1°C° 0 mm 1 mps 730 mmHg 91%
    19:00 -1°C° 0 mm 1 mps 731 mmHg 91%
    20:00 -3°C° 0.1 mm 2 mps 731 mmHg 91%
    21:00 -3°C° 0.1 mm 2 mps 731 mmHg 91%
    22:00 -2°C° 0.1 mm 3 mps 731 mmHg 92%
    23:00 -2°C° 0.1 mm 2 mps 731 mmHg 92%

    20 January, Saturday

    Time Temperature Precipitation Wind Pressure Humidity
    00:00 -3°C° 0.1 mm 2 mps 731 mmHg 92%
    01:00 -3°C° 0.1 mm 2 mps 731 mmHg 92%
    02:00 -3°C° 0 mm 2 mps 731 mmHg 92%
    03:00 -1°C° 0 mm 1 mps 731 mmHg 92%
    04:00 -1°C° 0 mm 1 mps 731 mmHg 92%
    05:00 -1°C° 0 mm 1 mps 731 mmHg 92%
    06:00 -1°C° 0 mm 1 mps 731 mmHg 92%
    07:00 -1°C° 0 mm 1 mps 731 mmHg 92%
    08:00 -3°C° 0 mm 2 mps 731 mmHg 91%
    09:00 -2°C° 0 mm 2 mps 731 mmHg 90%
    10:00 -2°C° 0 mm 2 mps 731 mmHg 89%
    11:00 -1°C° 0 mm 2 mps 731 mmHg 89%
    12:00 -1°C° 0 mm 2 mps 731 mmHg 89%
    13:00 -1°C° 0 mm 2 mps 731 mmHg 89%
    14:00 +1°C° 0 mm 1 mps 731 mmHg 90%
    15:00 0°C° 0 mm 1 mps 731 mmHg 91%
    16:00 0°C° 0 mm 1 mps 731 mmHg 91%
    17:00 0°C° 0 mm 1 mps 732 mmHg 91%
    18:00 -1°C° 0 mm 1 mps 732 mmHg 92%
    19:00 -1°C° 0 mm 1 mps 733 mmHg 92%
    20:00 -1°C° 0 mm 1 mps 733 mmHg 92%
    21:00 -1°C° 0 mm 1 mps 733 mmHg 92%
    22:00 -1°C° 0 mm 1 mps 734 mmHg 92%
    23:00 -1°C° 0 mm 1 mps 734 mmHg 93%

    21 January, Sunday

    Time Temperature Precipitation Wind Pressure Humidity
    00:00 -1°C° 0 mm 1 mps 734 mmHg 93%
    01:00 -1°C° 0 mm 1 mps 735 mmHg 93%
    02:00 -1°C° 0 mm 1 mps 735 mmHg 94%
    03:00 -3°C° 0 mm 2 mps 735 mmHg 94%
    04:00 -3°C° 0 mm 2 mps 735 mmHg 94%
    05:00 -3°C° 0 mm 2 mps 736 mmHg 94%
    06:00 -4°C° 0 mm 2 mps 736 mmHg 95%
    07:00 -4°C° 0 mm 2 mps 736 mmHg 95%
    08:00 -3°C° 0 mm 2 mps 736 mmHg 93%
    09:00 -3°C° 0 mm 2 mps 737 mmHg 92%
    10:00 -3°C° 0 mm 2 mps 737 mmHg 91%
    11:00 -2°C° 0 mm 3 mps 737 mmHg 89%
    12:00 -2°C° 0 mm 3 mps 737 mmHg 87%
    13:00 -2°C° 0 mm 3 mps 737 mmHg 86%
    14:00 -2°C° 0.1 mm 3 mps 737 mmHg 87%
    15:00 -2°C° 0.1 mm 3 mps 737 mmHg 89%
    16:00 -4°C° 0.1 mm 3 mps 738 mmHg 90%
    17:00 -4°C° 0 mm 3 mps 738 mmHg 91%
    18:00 -4°C° 0 mm 3 mps 738 mmHg 91%
    19:00 -4°C° 0 mm 4 mps 739 mmHg 92%
    20:00 -5°C° 0.1 mm 4 mps 739 mmHg 91%
    21:00 -5°C° 0.1 mm 4 mps 739 mmHg 90%
    22:00 -5°C° 0.1 mm 4 mps 740 mmHg 89%
    23:00 -5°C° 0 mm 4 mps 740 mmHg 90%
    Show more